Regional Weather Roundup
Issued by NWS

Home | Current Version | Previous Version | Graphics & Text | Print | Product List | Glossary On
Versions: 1 2 3 4 5 6 7 8 9 10 11 12 13 14 15 16 17 18 19 20 21 22 23 24 25 26 27
000
ASUS45 KCYS 250510
RWRWY

WYOMING REGIONAL WEATHER ROUNDUP
NATIONAL WEATHER SERVICE CHEYENNE WY
1100 PM MDT MON JUL 24 2017

NOTE:  "FAIR" INDICATES FEW OR NO CLOUDS BELOW 12,000 FEET
WITH NO SIGNIFICANT WEATHER AND/OR OBSTRUCTIONS TO VISIBILITY.

WYZ001-250600-
YELLOWSTONE NATIONAL PARK

CITY           SKY/WX    TMP DP  RH WIND       PRES   REMARKS
LK YELLOWSTONE   N/A     48  44  86 CALM      30.32R
W YELLOWSTONE  NOT AVBL

$$
WYZ002>013-054>058-071-098>099-250600-
NORTHERN WYOMING

CITY           SKY/WX    TMP DP  RH WIND       PRES   REMARKS
JACKSON        FAIR      63  43  48 N9        30.18R
CODY           FAIR      80  40  23 W13G21    30.02F
GREYBULL       FAIR      82  32  16 NW15      29.90R
WORLAND        FAIR      77  43  29 W3        29.93R
SHERIDAN       FAIR      74  48  39 W7        29.97R
BUFFALO        FAIR      76  45  33 NW10      30.05R
GILLETTE       FAIR      68  50  52 CALM      29.93F
HULETT         FAIR      77  46  33 CALM      29.94S
NEWCASTLE      FAIR      82  39  21 E16       29.92S

$$
WYZ014>020-022>026-101>103-250600-
CENTRAL WYOMING

CITY           SKY/WX    TMP DP  RH WIND       PRES   REMARKS
BIG PINEY      FAIR      60  40  47 N10       30.20R
PINEDALE       FAIR      61  39  44 CALM      30.21S
DUBOIS         FAIR      64  34  32 NW7       30.19F
LANDER         FAIR      80  30  16 SW13      30.04R
RIVERTON       FAIR      79  37  22 N16       30.03R
CASPER         FAIR      72  35  25 SW6       30.00S
DOUGLAS        FAIR      76  38  25 CALM      29.98R

$$
WYZ021-027>030-104>119-250600-
SOUTHERN WYOMING

CITY           SKY/WX    TMP DP  RH WIND       PRES   REMARKS
EVANSTON       MOCLDY    70  46  42 N5        30.20R
KEMMERER         N/A    N/A N/A N/A N12       30.21S
FORT BRIDGER   MOCLDY    74  40  30 S12G20    30.22R
ROCK SPRINGS   FAIR      75  40  28 SW9       30.16R
RAWLINS        FAIR      72  34  24 CALM      30.16R
SARATOGA       FAIR      73  39  29 S12       30.19S
LARAMIE        FAIR      64  41  42 SW7       30.21R
CHEYENNE       FAIR      67  44  43 SW7       30.12R
TORRINGTON     FAIR      77  53  43 E10       29.93R
PINE BLUFFS    FAIR      77  43  29 SE15G24   30.04S

$$




USA.gov is the U.S. government's official web portal to all federal, state and local government web resources and services.